Location: Martinez
(33.5170°N, 82.0760°W)
Time: 17:51:29
(UTC-04:00)

Hubble Space Telescope - Visible Passes

Search period start: 28 April 2016 00:00
Search period end: 08 May 2016 00:00
Orbit: 539 x 543 km, 28.5° (Epoch: 27 April)

Date Brightness Start Highest point End Pass type
(mag) Time Alt. Az. Time Alt. Az. Time Alt. Az.
28 Apr 2.4 05:45:29 13° SSW 05:48:10 22° SSE 05:51:24 10° ESE visible
29 Apr 2.2 05:36:19 17° SSW 05:38:29 26° SSE 05:41:57 10° ESE visible
30 Apr 1.9 05:27:07 22° SSW 05:28:49 29° SSE 05:32:26 10° ESE visible
01 May 1.7 05:17:54 27° SSW 05:19:09 33° S 05:22:53 10° ESE visible
02 May 1.5 05:08:42 33° SSW 05:09:30 36° S 05:13:18 10° ESE visible
03 May 1.3 04:59:30 38° S 04:59:50 39° S 05:03:42 10° ESE visible
04 May 1.3 04:50:21 40° S 04:50:21 40° S 04:54:05 10° ESE visible
05 May 1.6 04:41:15 37° SSE 04:41:15 37° SSE 04:44:26 10° ESE visible
06 May 2.0 04:32:14 30° SE 04:32:14 30° SE 04:34:47 10° ESE visible
07 May 2.5 04:23:20 22° SE 04:23:20 22° SE 04:25:05 10° ESE visible
07 May 2.2 05:58:52 10° WSW 06:02:05 22° SSW 06:05:17 10° SSE visible
